Regional Weather Roundup
Issued by NWS

Home | Current Version | Previous Version | Text Only | Print | Product List | Glossary On
Versions: 1 2 3 4 5 6 7 8 9 10 11 12 13 14 15 16 17 18 19 20 21 22 23 24 25 26 27 28 29 30 31 32 33 34 35 36 37 38 39 40 41 42 43 44 45 46 47
000
ASUS45 KCYS 010810
RWRWY

WYOMING REGIONAL WEATHER ROUNDUP
NATIONAL WEATHER SERVICE CHEYENNE WY
200 AM MDT WED OCT 01 2014

NOTE:  "FAIR" INDICATES FEW OR NO CLOUDS BELOW 12,000 FEET
WITH NO SIGNIFICANT WEATHER AND/OR OBSTRUCTIONS TO VISIBILITY.

WYZ001-010900-
YELLOWSTONE NATIONAL PARK

CITY           SKY/WX    TMP DP  RH WIND       PRES   REMARKS
LK YELLOWSTONE   N/A     33  32  96 CALM      29.97F
W YELLOWSTONE  NOT AVBL

$$
WYZ002>013-054>058-071-098>099-010900-
NORTHERN WYOMING

CITY           SKY/WX    TMP DP  RH WIND       PRES   REMARKS
JACKSON        CLOUDY    39  36  87 S13       29.95S WCI  32
CODY           CLOUDY    45  41  87 NW5       29.89R
GREYBULL       LGT RAIN  50  41  71 NW13G29   29.84R
WORLAND        LGT RAIN  48  44  86 NW13      29.86R
SHERIDAN       CLOUDY    51  41  68 NW13      29.83R
BUFFALO        CLOUDY    49  39  68 N16G26    29.84R
GILLETTE       CLOUDY    49  45  86 NW14      29.81R
HULETT         CLOUDY    50  45  81 W8        29.80
NEWCASTLE      FAIR      48  43  81 NW6       29.81

$$
WYZ014>020-022>026-101>103-010900-
CENTRAL WYOMING

CITY           SKY/WX    TMP DP  RH WIND       PRES   REMARKS
BIG PINEY      PTCLDY    33  27  78 NE9       29.97F WCI  25
PINEDALE       MOSUNNY   32  32 100 NW3       29.98S
DUBOIS         FAIR      36  27  69 NW14      29.92R WCI  27
LANDER         PTCLDY    43  37  79 E5        29.86R
RIVERTON       CLOUDY    47  42  83 N7        29.86R
CASPER         CLOUDY    47  38  71 SW7       29.84R
DOUGLAS        PTCLDY    46  41  82 CALM      29.85S

$$
WYZ021-027>030-104>119-010900-
SOUTHERN WYOMING

CITY           SKY/WX    TMP DP  RH WIND       PRES   REMARKS
EVANSTON       MOCLDY    38  36  92 CALM      30.00S
KEMMERER       SUNNY     34  34 100 SW6       30.00R WCI  29
FORT BRIDGER     N/A     40  38  93 W9        30.02F WCI  34
ROCK SPRINGS   MOCLDY    38  36  92 SW10      29.97S WCI  31
DIXON          CLOUDY    44  41  88 S7        30.01S
RAWLINS        MOCLDY    41  36  82 W14       29.94R
SARATOGA       CLOUDY    43  36  75 SW6       29.97R
LARAMIE        CLEAR     40  33  76 SW12      29.93S WCI  33
CHEYENNE       PTCLDY    46  36  68 W7        29.89S
TORRINGTON     CLEAR     52  43  71 NW8       29.80R
PINE BLUFFS    FAIR      41  39  93 SW3       29.87R

$$



USA.gov is the U.S. government's official web portal to all federal, state and local government web resources and services.